[[{"header":{"parameterUnit":"m.s-1","parameterCategory":1,"la1":30.2991,"la2":30.254,"lo1":-89.0895,"lo2":-89.0444,"dy":0.0017,"dx":0.0017,"nx":28,"ny":28,"refTime":"2024-07-23T21:00:00:Z","depth":0,"parameterNumber":2,"parameterNumberName":"U-component_of_WINDS"},"data":[0,0,0,0,0,0,0,0,0,0,0,0,0,0,0,0,0,0,0,0,0,0,0,0,0,0,0,0,0,0,0,0,0,0,0,0,0,0,0,0,0,0,0,0,0,0,0,0,0,0,0,0,0,0,0,0,0,0,-0.0863,-0.0864,0,-0.0881,-0.0881,-0.0881,-0.0874,-0.0873,-0.0873,-0.0872,-0.0892,-0.0893,-0.0894,0,0,0,0,0,0,0,0,0,0,0,0,0,-0.0824,-0.0825,-0.0863,-0.0864,-0.0864,-0.0881,-0.0881,-0.0881,-0.0874,-0.0873,-0.0873,-0.0872,-0.0892,-0.0893,-0.0894,0,0,0,0,0,0,0,0,0,0,0,0,0,-0.0841,-0.0825,-0.0863,-0.0862,-0.0862,-0.0881,-0.0881,-0.0881,-0.0874,-0.0873,-0.0872,-0.0872,-0.0891,-0.0893,-0.0894,-0.0916,0,0,-0.0898,-0.0899,0,0,0,0,0,0,0,0,-0.084,-0.0843,-0.0862,-0.0862,-0.0862,-0.0874,-0.0874,-0.0893,-0.0874,-0.0869,-0.0872,-0.0872,-0.0887,-0.0888,-0.0893,-0.0917,-0.0917,-0.0898,-0.0899,-0.09,-0.09,0,0,0,0,0,0,0,-0.0839,-0.0842,-0.087,-0.0862,-0.0862,-0.0861,-0.0862,-0.0878,-0.0882,-0.087,-0.0869,-0.0871,-0.0887,-0.0892,-0.0894,-0.0918,-0.0898,-0.09,-0.09,-0.0901,-0.0958,-0.0958,0,0,0,0,0,0,-0.0838,-0.0841,-0.087,-0.0871,-0.0849,-0.0862,-0.0864,-0.0871,-0.0881,-0.0882,-0.0872,-0.0871,-0.089,-0.0892,-0.0894,-0.0919,-0.09,-0.0901,-0.0902,-0.0957,-0.0958,-0.0958,0,0,0,0,0,0,-0.0837,-0.084,-0.0869,-0.0856,-0.0859,-0.0863,-0.0872,-0.0872,-0.0877,-0.0883,-0.0884,-0.0876,-0.0889,-0.0892,-0.091,-0.092,-0.0902,-0.0903,-0.0956,-0.0957,-0.0958,-0.097,0,0,0,0,0,0,-0.0836,-0.084,-0.0849,-0.0856,-0.086,-0.0885,-0.0872,-0.0873,-0.0879,-0.0878,-0.0887,-0.0888,-0.0889,-0.0908,-0.0911,-0.0922,-0.0904,-0.0955,-0.0957,-0.0958,-0.0969,-0.0971,-0.0974,0,0,0,0,0,-0.0834,-0.0852,-0.0849,-0.0853,-0.0871,-0.0885,-0.0887,-0.0887,-0.088,-0.0888,-0.0892,-0.0888,-0.0918,-0.091,-0.0913,-0.0924,-0.0955,-0.0956,-0.0958,-0.0968,-0.0971,-0.0973,0,0,0,0,0,0,-0.0847,-0.0853,-0.085,-0.087,-0.0877,-0.0884,-0.0895,-0.0891,-0.0901,-0.0899,-0.0899,-0.0901,-0.0919,-0.0923,-0.0914,-0.0945,-0.0935,-0.0938,-0.0942,-0.0945,-0.0947,-0.0946,-0.0905,0,0,0,0,0,-0.0852,-0.0863,-0.0868,-0.0886,-0.0889,-0.0891,-0.0897,-0.0896,-0.0904,-0.0907,-0.0912,-0.0919,-0.093,-0.0937,-0.0948,-0.0969,-0.097,-0.0978,-0.098,-0.0982,-0.0985,-0.0994,-0.0998,-0.0963,-0.0963,-0.0963,0,0,-0.0863,-0.0868,-0.0875,-0.0888,-0.0893,-0.0905,-0.0894,-0.0907,-0.0915,-0.0909,-0.0926,-0.0929,-0.0937,-0.0956,-0.0965,-0.096,-0.0994,-0.0984,-0.0986,-0.0987,-0.0996,-0.1,-0.1002,-0.0964,-0.0964,-0.0964,0,0,-0.0889,-0.0894,-0.0908,-0.0913,-0.092,-0.0921,-0.0924,-0.0931,-0.0933,-0.0949,-0.0944,-0.0954,-0.0973,-0.0978,-0.0984,-0.1008,-0.1005,-0.1012,-0.1024,-0.1034,-0.1037,-0.1039,-0.1047,-0.105,-0.1014,-0.1014,-0.1014,0,-0.0902,-0.0919,-0.0916,-0.0929,-0.0935,-0.0928,-0.0942,-0.0947,-0.0958,-0.0962,-0.0956,-0.0978,-0.0984,-0.1003,-0.1009,-0.1013,-0.1017,-0.1011,-0.1036,-0.1039,-0.1041,-0.1049,-0.1052,-0.1015,-0.1014,-0.1014,-0.1014,0,-0.0934,-0.0945,-0.0956,-0.0965,-0.0972,-0.0985,-0.0985,-0.0992,-0.0989,-0.099,-0.1006,-0.1011,-0.1022,-0.1026,-0.1025,-0.1045,-0.1042,-0.1036,-0.1027,-0.1045,-0.1052,-0.1055,-0.1016,-0.1015,-0.1015,-0.1015,0,0,-0.0971,-0.0976,-0.098,-0.0983,-0.0989,-0.0998,-0.1011,-0.102,-0.1025,-0.1032,-0.1042,-0.1057,-0.1051,-0.1057,-0.1056,-0.1064,-0.1082,-0.1058,-0.1058,-0.1062,-0.1104,-0.1108,-0.1111,-0.1079,-0.108,-0.108,-0.1103,0,-0.0997,-0.1018,-0.1015,-0.1036,-0.1046,-0.1038,-0.1049,-0.1054,-0.1054,-0.1063,-0.1064,-0.1074,-0.1066,-0.1069,-0.1077,-0.1079,-0.1091,-0.1077,-0.1089,-0.1089,-0.1088,-0.1115,-0.1121,-0.1142,-0.1106,-0.1106,-0.1106,0,-0.1031,-0.1037,-0.1058,-0.1061,-0.1065,-0.1075,-0.1082,-0.109,-0.1094,-0.1094,-0.1099,-0.1096,-0.1108,-0.1097,-0.1113,-0.1103,-0.1107,-0.1109,-0.111,-0.1111,-0.11,-0.1118,-0.1148,-0.1151,-0.1111,-0.1111,-0.111,0,-0.1055,-0.1069,-0.1083,-0.1086,-0.1089,-0.1096,-0.1098,-0.1102,-0.1107,-0.1113,-0.1116,-0.1124,-0.1128,-0.1134,-0.1132,-0.1124,-0.1148,-0.1137,-0.1148,-0.1148,-0.1154,-0.1154,-0.1186,-0.1156,-0.1156,-0.1156,-0.1156,0,-0.1085,-0.1098,-0.1094,-0.1102,-0.1116,-0.1112,-0.1126,-0.1127,-0.113,-0.1138,-0.1132,-0.114,-0.1137,-0.1145,-0.1143,-0.1156,-0.1158,-0.1158,-0.1158,-0.1159,-0.1159,-0.1163,-0.1161,-0.1157,-0.1157,-0.1157,-0.1157,0,-0.1116,-0.1113,-0.1128,-0.1128,-0.1129,-0.1139,-0.114,-0.1148,-0.1147,-0.1158,-0.116,-0.1159,-0.1167,-0.1165,-0.1175,-0.1174,-0.119,-0.1187,-0.1188,-0.1188,-0.1198,-0.1197,-0.1234,-0.1238,-0.1206,-0.1206,-0.1206,0,-0.1135,-0.1145,-0.1146,-0.1151,-0.1153,-0.116,-0.1165,-0.116,-0.1165,-0.1169,-0.1176,-0.1184,-0.119,-0.1203,-0.1203,-0.121,-0.1208,-0.122,-0.1209,-0.1209,-0.1208,-0.1207,-0.1208,-0.1223,-0.1223,-0.1224,-0.1224,0,-0.117,-0.1168,-0.1174,-0.1179,-0.1184,-0.1188,-0.1192,-0.1196,-0.1192,-0.1197,-0.1205,-0.1209,-0.1218,-0.1225,-0.1231,-0.1232,-0.1227,-0.1227,-0.123,-0.1232,-0.1231,-0.1231,-0.1194,-0.1227,-0.1226,-0.1226,-0.1226,-0.1226,-0.1196,-0.1203,-0.1205,-0.1211,-0.1213,-0.1216,-0.1223,-0.1221,-0.1228,-0.1234,-0.123,-0.1239,-0.1241,-0.1248,-0.125,-0.1257,-0.1252,-0.1256,-0.1257,-0.1259,-0.126,-0.1229,-0.1258,-0.1258,-0.1257,-0.1257,-0.1257,0,-0.123,-0.123,-0.1236,-0.124,-0.1245,-0.1238,-0.1241,-0.1246,-0.1253,-0.1255,-0.126,-0.1268,-0.1274,-0.1274,-0.1279,-0.1284,-0.1282,-0.1286,-0.1286,-0.1286,-0.1264,-0.1261,-0.1288,-0.1288,-0.1288,-0.1288,-0.1288,-0.1288,-0.1249,-0.1261,-0.1258,-0.127,-0.127,-0.1277,-0.1279,-0.1282,-0.1283,-0.1292,-0.1296,-0.1295,-0.1296,-0.1301,-0.1306,-0.1306,-0.1308,-0.1313,-0.1311,-0.1291,-0.1288,-0.1285,-0.1282,-0.1313,-0.1313,-0.1333,-0.1333,-0.1334]},{"header":{"parameterUnit":"m.s-1","parameterCategory":1,"la1":30.2991,"la2":30.254,"lo1":-89.0895,"lo2":-89.0444,"dy":0.0017,"dx":0.0017,"nx":28,"ny":28,"refTime":"2024-07-23T21:00:00:Z","depth":0,"parameterNumber":3,"parameterNumberName":"V-component_of_WINDS"},"data":[0,0,0,0,0,0,0,0,0,0,0,0,0,0,0,0,0,0,0,0,0,0,0,0,0,0,0,0,0,0,0,0,0,0,0,0,0,0,0,0,0,0,0,0,0,0,0,0,0,0,0,0,0,0,0,0,0,0,-3.1352,-3.1353,0,-3.1456,-3.1457,-3.1458,-3.1439,-3.1438,-3.1436,-3.1434,-3.1538,-3.1543,-3.1547,0,0,0,0,0,0,0,0,0,0,0,0,0,-3.1134,-3.1138,-3.1352,-3.1353,-3.1355,-3.1456,-3.1457,-3.1459,-3.144,-3.1437,-3.1435,-3.1433,-3.1537,-3.1542,-3.1547,0,0,0,0,0,0,0,0,0,0,0,0,0,-3.1232,-3.114,-3.1352,-3.1357,-3.1359,-3.1456,-3.1457,-3.1459,-3.144,-3.1437,-3.1435,-3.1432,-3.1535,-3.1542,-3.1548,-3.1645,0,0,-3.1569,-3.1572,0,0,0,0,0,0,0,0,-3.1227,-3.124,-3.1355,-3.1357,-3.1359,-3.1432,-3.1419,-3.1521,-3.1441,-3.1409,-3.1434,-3.1431,-3.1505,-3.1514,-3.154,-3.165,-3.1654,-3.1569,-3.1574,-3.1576,-3.1578,0,0,0,0,0,0,0,-3.122,-3.1236,-3.1393,-3.1357,-3.1359,-3.1354,-3.1365,-3.1438,-3.1471,-3.1412,-3.1411,-3.1423,-3.1505,-3.1533,-3.1542,-3.1656,-3.1569,-3.1575,-3.1579,-3.1582,-3.185,-3.1853,0,0,0,0,0,0,-3.1212,-3.123,-3.139,-3.1396,-3.1285,-3.136,-3.1372,-3.1411,-3.147,-3.1477,-3.1426,-3.1422,-3.1523,-3.1534,-3.1545,-3.1662,-3.1576,-3.1583,-3.1587,-3.1847,-3.1851,-3.1854,0,0,0,0,0,0,-3.1207,-3.1226,-3.1385,-3.1313,-3.1333,-3.1367,-3.1411,-3.1415,-3.1442,-3.1481,-3.1486,-3.1448,-3.1521,-3.1536,-3.162,-3.1665,-3.1586,-3.1592,-3.1843,-3.1848,-3.1852,-3.1896,0,0,0,0,0,0,-3.1201,-3.1225,-3.1263,-3.1314,-3.1337,-3.146,-3.1414,-3.1419,-3.1454,-3.1451,-3.1503,-3.1509,-3.152,-3.161,-3.1627,-3.1673,-3.1597,-3.1839,-3.1845,-3.1851,-3.189,-3.1901,-3.1911,0,0,0,0,0,-3.1193,-3.127,-3.1265,-3.1284,-3.1385,-3.1462,-3.1475,-3.1487,-3.1458,-3.1496,-3.152,-3.1508,-3.1658,-3.1619,-3.1638,-3.1686,-3.1837,-3.1844,-3.185,-3.1886,-3.1899,-3.191,0,0,0,0,0,0,-3.1222,-3.1277,-3.1271,-3.1367,-3.141,-3.1459,-3.1507,-3.1501,-3.1552,-3.1546,-3.1558,-3.157,-3.1655,-3.1679,-3.1635,-3.1783,-3.1743,-3.1754,-3.1764,-3.1777,-3.1786,-3.1778,-3.1603,0,0,0,0,0,-3.124,-3.1299,-3.1344,-3.1424,-3.1446,-3.1473,-3.1507,-3.1512,-3.1557,-3.1575,-3.1605,-3.1649,-3.1705,-3.1742,-3.1797,-3.1894,-3.1905,-3.1937,-3.1947,-3.1955,-3.1964,-3.2016,-3.203,-3.1877,-3.1877,-3.1876,0,0,-3.1277,-3.1314,-3.1351,-3.1431,-3.1465,-3.1525,-3.1488,-3.1553,-3.1597,-3.1584,-3.1666,-3.169,-3.1739,-3.183,-3.1871,-3.1852,-3.2009,-3.1964,-3.197,-3.1974,-3.2024,-3.2039,-3.2052,-3.1881,-3.1881,-3.188,0,0,-3.1375,-3.141,-3.148,-3.1515,-3.1567,-3.1584,-3.1601,-3.1651,-3.1666,-3.1749,-3.174,-3.1792,-3.189,-3.1925,-3.1955,-3.2066,-3.2056,-3.2084,-3.2135,-3.2186,-3.2198,-3.2209,-3.2247,-3.2261,-3.2093,-3.2093,-3.2093,0,-3.1414,-3.1504,-3.1517,-3.1583,-3.1617,-3.1609,-3.168,-3.1713,-3.178,-3.1803,-3.1782,-3.1904,-3.1936,-3.2035,-3.2062,-3.2087,-3.2106,-3.2077,-3.2196,-3.2206,-3.2217,-3.2253,-3.2268,-3.2096,-3.2095,-3.2095,-3.2095,0,-3.1549,-3.1612,-3.1663,-3.1728,-3.1769,-3.1837,-3.1858,-3.1898,-3.19,-3.1919,-3.2002,-3.2041,-3.2102,-3.2126,-3.2129,-3.2225,-3.2212,-3.2193,-3.2153,-3.2234,-3.2268,-3.2283,-3.21,-3.2099,-3.2098,-3.2097,0,0,-3.1667,-3.1739,-3.1757,-3.1786,-3.1843,-3.1891,-3.1958,-3.2019,-3.2052,-3.2099,-3.2155,-3.2238,-3.2221,-3.2255,-3.2261,-3.2306,-3.239,-3.2282,-3.2283,-3.2299,-3.2497,-3.2509,-3.2526,-3.2384,-3.2386,-3.2389,-3.2492,0,-3.1769,-3.1888,-3.1901,-3.2007,-3.2065,-3.2058,-3.2116,-3.2157,-3.2177,-3.2228,-3.225,-3.2308,-3.2281,-3.2302,-3.2346,-3.237,-3.2429,-3.2363,-3.2434,-3.2437,-3.2421,-3.2544,-3.2558,-3.2653,-3.2506,-3.2508,-3.251,0,-3.1903,-3.1954,-3.2066,-3.2114,-3.2139,-3.2192,-3.2248,-3.2297,-3.2343,-3.2354,-3.2393,-3.2393,-3.2461,-3.242,-3.2513,-3.2468,-3.2498,-3.2514,-3.2518,-3.2524,-3.2477,-3.2552,-3.2684,-3.2698,-3.2531,-3.253,-3.2528,0,-3.1976,-3.2073,-3.2152,-3.2178,-3.2236,-3.2273,-3.2299,-3.2342,-3.2378,-3.2427,-3.245,-3.2506,-3.2537,-3.258,-3.2595,-3.2564,-3.2687,-3.2647,-3.2697,-3.2697,-3.2723,-3.2721,-3.2861,-3.2745,-3.2744,-3.2744,-3.2744,0,-3.2088,-3.2156,-3.2186,-3.2234,-3.231,-3.2324,-3.2399,-3.2423,-3.2461,-3.2514,-3.2511,-3.256,-3.2578,-3.263,-3.2642,-3.2717,-3.2731,-3.2741,-3.2743,-3.274,-3.2739,-3.2759,-3.2752,-3.2748,-3.2747,-3.2746,-3.2746,0,-3.2182,-3.2204,-3.229,-3.2339,-3.2353,-3.2406,-3.2447,-3.2494,-3.2513,-3.258,-3.2596,-3.2626,-3.2687,-3.2706,-3.278,-3.2788,-3.2875,-3.2872,-3.2859,-3.2859,-3.2908,-3.2902,-3.3064,-3.3086,-3.2957,-3.2958,-3.2959,0,-3.2251,-3.2303,-3.2358,-3.2393,-3.242,-3.2477,-3.2514,-3.2529,-3.2567,-3.2623,-3.2662,-3.2723,-3.2772,-3.2869,-3.2897,-3.2952,-3.295,-3.3003,-3.2958,-3.2954,-3.2949,-3.2945,-3.295,-3.3011,-3.3012,-3.3013,-3.3014,0,-3.237,-3.2379,-3.2432,-3.2489,-3.2533,-3.2578,-3.2622,-3.2651,-3.2673,-3.2715,-3.2777,-3.2816,-3.2891,-3.295,-3.3007,-3.3032,-3.3027,-3.3028,-3.3043,-3.304,-3.303,-3.3034,-3.2881,-3.3024,-3.3023,-3.3022,-3.3022,-3.3021,-3.2453,-3.2499,-3.2544,-3.2603,-3.2638,-3.2679,-3.2725,-3.275,-3.2802,-3.2865,-3.2871,-3.2938,-3.2981,-3.3057,-3.3086,-3.3138,-3.3123,-3.3144,-3.3149,-3.3153,-3.3156,-3.3023,-3.3148,-3.3148,-3.3148,-3.3148,-3.3148,0,-3.2571,-3.26,-3.2654,-3.2715,-3.2762,-3.2754,-3.2802,-3.284,-3.2899,-3.2941,-3.2989,-3.3061,-3.3118,-3.3151,-3.3208,-3.3243,-3.3242,-3.3258,-3.3255,-3.326,-3.3167,-3.3149,-3.3258,-3.3258,-3.3258,-3.3258,-3.3258,-3.3258,-3.2637,-3.2714,-3.2728,-3.2822,-3.2851,-3.2917,-3.2945,-3.2982,-3.3015,-3.3095,-3.3143,-3.3164,-3.3202,-3.3262,-3.3314,-3.3322,-3.3343,-3.336,-3.3366,-3.3278,-3.3267,-3.3256,-3.3238,-3.3365,-3.3365,-3.3454,-3.3455,-3.3456]}]]